DW4554 Weather Reports


Display with metric or nautical units.
time (UTC)temp
F
wind
direction
speed
MPH
gust
MPH
rain 1hr
in
rain 24hr
in
rain mn
in
humidity
%
barometer
mb
20180920145459 85 236 0.0 5.0 0.00 0.00 0.00 45 1017.2
20180920143448 85 238 1.0 3.0 0.00 0.00 0.00 44 1017.3
20180920142442 85 238 1.0 6.0 0.00 0.00 0.00 44 1017.4
20180920140433 85 228 1.0 7.0 0.00 0.00 0.00 45 1017.5
20180920135421 85 202 3.0 6.0 0.00 0.00 0.00 47 1017.6
20180920133533 84 203 2.0 5.0 0.00 0.00 0.00 47 1017.8
20180920132531 83 228 4.0 8.0 0.00 0.00 0.00 48 1017.8
20180920130517 82 212 1.0 3.0 0.00 0.00 0.00 52 1018.0
20180920125514 82 192 2.0 7.0 0.00 0.00 0.00 52 1018.1
20180920123510 81 244 2.0 3.0 0.00 0.00 0.00 53 1018.4
20180920122502 80 256 1.0 6.0 0.00 0.00 0.00 55 1018.4
20180920120455 80 171 1.0 3.0 0.00 0.00 0.00 53 1018.6
20180920115455 80 188 2.0 7.0 0.00 0.00 0.00 55 1018.6
20180920113447 79 302 1.0 6.0 0.00 0.00 0.00 58 1018.8
20180920112442 79 263 1.0 7.0 0.00 0.00 0.00 59 1018.9
20180920110432 78 220 3.0 8.0 0.00 0.00 0.00 61 1019.0
20180920105431 78 240 3.0 8.0 0.00 0.00 0.00 62 1019.1
20180920103442 77 235 3.0 8.0 0.00 0.00 0.00 62 1019.2
20180920102522 77 211 2.0 6.0 0.00 0.00 0.00 61 1019.4
20180920100512 77 234 1.0 5.0 0.00 0.00 0.00 63 1019.5
20180920095504 77 228 2.0 5.0 0.00 0.00 0.00 63 1019.7
20180920093455 76 40 1.0 3.0 0.00 0.00 0.00 64 1019.9
20180920092450 75 39 1.0 3.0 0.00 0.00 0.00 65 1019.9
20180920090432 73 40 0.0 3.0 0.00 0.00 0.00 69 1020.0
20180920085433 72 31 1.0 3.0 0.00 0.00 0.00 72 1020.1
20180920083542 69 347 0.0 3.0 0.00 0.00 0.00 74 1020.2
20180920082540 68 346 0.0 2.0 0.00 0.00 0.00 76 1020.3
20180920080530 65 346 0.0 2.0 0.00 0.00 0.00 83 1020.4
20180920075528 63 346 0.0 2.0 0.00 0.00 0.00 86 1020.4
20180920073518 60 346 0.0 2.0 0.00 0.00 0.00 90 1020.5
20180920072513 59 346 0.0 3.0 0.00 0.00 0.00 90 1020.4
20180920070505 57 17 0.0 2.0 0.00 0.00 0.00 90 1020.4
20180920065503 57 64 0.0 2.0 0.00 0.00 0.00 90 1020.3
20180920063449 55 65 0.0 2.0 0.00 0.00 0.00 90 1020.2
20180920062444 55 65 0.0 0.0 0.00 0.00 0.00 90 1020.1
20180920060434 54 64 0.0 2.0 0.00 0.00 0.00 91 1020.0
20180920055430 53 65 0.0 1.0 0.00 0.00 0.00 91 1020.0
20180920053417 53 65 0.0 0.0 0.00 0.00 0.00 91 1020.0
20180920052537 53 64 0.0 0.0 0.00 0.00 0.00 91 1020.0
20180920050535 53 65 1.0 2.0 0.00 0.00 0.00 91 1019.9
20180920045529 53 64 0.0 2.0 0.00 0.00 0.00 91 1019.8
20180920043517 53 64 0.0 0.0 0.00 0.00 0.00 90 1019.8
20180920042515 53 64 0.0 2.0 0.00 0.00 0.00 91 1019.7
20180920040457 53 64 0.0 0.0 0.00 0.00 0.00 91 1019.6
20180920035455 54 64 0.0 3.0 0.00 0.00 0.00 90 1019.6
20180920033435 54 65 0.0 2.0 0.00 0.00 0.00 91 1019.6
20180920032437 54 65 0.0 3.0 0.00 0.00 0.00 91 1019.6
20180920030535 54 65 1.0 3.0 0.00 0.00 0.00 91 1019.6
20180920025534 54 63 2.0 5.0 0.00 0.00 0.00 91 1019.6
20180920023530 54 13 0.0 2.0 0.00 0.00 0.00 90 1019.7
20180920022529 54 13 1.0 2.0 0.00 0.00 0.00 90 1019.6
20180920020528 54 13 1.0 3.0 0.00 0.00 0.00 90 1019.7
20180920015504 54 13 1.0 2.0 0.00 0.00 0.00 90 1019.7
20180920013459 55 13 0.0 0.0 0.00 0.00 0.00 90 1019.6
20180920012457 55 13 1.0 3.0 0.00 0.00 0.00 90 1019.5
20180920010455 55 13 2.0 3.0 0.00 0.00 0.00 90 1019.5
20180920005452 55 13 1.0 3.0 0.00 0.00 0.00 90 1019.6
20180920003444 55 13 1.0 3.0 0.00 0.00 0.00 89 1019.7
20180920002443 55 11 0.0 2.0 0.00 0.00 0.00 89 1019.6
20180920000425 56 59 0.0 2.0 0.00 0.00 0.00 89 1019.8
20180919235427 56 59 0.0 3.0 0.00 0.00 0.00 89 1019.8
20180919233542 56 59 1.0 3.0 0.00 0.00 0.00 89 1019.8
20180919232539 56 59 0.0 2.0 0.00 0.00 0.00 89 1019.8
20180919230526 57 59 0.0 2.0 0.00 0.00 0.00 88 1019.8
20180919225525 57 59 2.0 3.0 0.00 0.00 0.00 88 1019.7
20180919223513 57 59 1.0 3.0 0.00 0.00 0.00 88 1019.7
20180919222511 57 59 2.0 3.0 0.00 0.00 0.00 87 1019.7
20180919220507 58 59 0.0 0.0 0.00 0.00 0.00 87 1019.8
20180919215450 58 59 0.0 3.0 0.00 0.00 0.00 87 1019.7
20180919213448 59 59 2.0 3.0 0.00 0.00 0.00 87 1019.7
20180919212427 59 60 2.0 3.0 0.00 0.00 0.00 86 1019.8
20180919210430 59 59 2.0 3.0 0.00 0.00 0.00 85 1019.8
20180919205446 60 58 0.0 2.0 0.00 0.00 0.00 84 1019.9
20180919203530 60 58 0.0 0.0 0.00 0.00 0.00 83 1019.9
20180919202528 61 58 0.0 2.0 0.00 0.00 0.00 83 1019.9
20180919200526 61 58 1.0 2.0 0.00 0.00 0.00 83 1019.8
20180919195524 62 58 0.0 3.0 0.00 0.00 0.00 82 1019.7
20180919193519 62 61 2.0 3.0 0.00 0.00 0.00 80 1019.6
20180919192516 63 63 0.0 3.0 0.00 0.00 0.00 79 1019.8
20180919190513 64 62 2.0 3.0 0.00 0.00 0.00 78 1019.6
20180919185511 64 61 1.0 3.0 0.00 0.00 0.00 77 1019.6
20180919183506 65 61 1.0 3.0 0.00 0.00 0.00 75 1019.5
20180919182458 66 61 1.0 3.0 0.00 0.00 0.00 74 1019.4
20180919180455 68 102 0.0 2.0 0.00 0.00 0.00 71 1019.3
20180919175455 69 102 2.0 3.0 0.00 0.00 0.00 70 1019.3
20180919173451 70 190 1.0 2.0 0.00 0.00 0.00 67 1019.2
20180919172438 71 190 0.0 3.0 0.00 0.00 0.00 66 1019.1
20180919170433 73 195 0.0 0.0 0.00 0.00 0.00 63 1018.9
20180919165433 74 195 0.0 1.0 0.00 0.00 0.00 62 1018.8
20180919163415 76 195 0.0 0.0 0.00 0.00 0.00 60 1018.8
20180919162417 76 195 0.0 0.0 0.00 0.00 0.00 59 1018.9
20180919160533 76 195 0.0 0.0 0.00 0.00 0.00 58 1018.8
20180919155531 77 195 0.0 1.0 0.00 0.00 0.00 58 1018.8
20180919153517 77 195 0.0 3.0 0.00 0.00 0.00 54 1018.8
20180919152515 78 195 0.0 5.0 0.00 0.00 0.00 52 1018.7
20180919150500 78 203 3.0 10.0 0.00 0.00 0.00 48 1018.7